User: anonymous   Login
Location: Unspecified
(0.0000°N, 0.0000°E)
Time: 21:56:47
(UTC+00:00)
Language:

TBA - TO BE ASSIGNED - Orbit

View from above orbital plane
View from above orbital plane
View from above satellite
View from above satellite

Ground track
Ground track

The orbit is defined by the following mean orbital elements,

1 68842U          26145.58335647 +.00000000 +00000-0 -32703-1 0 00007
2 68842  97.2845 160.3001 0001885 113.1922 160.4059 15.49625664    00
Epoch (UTC): 25 May 2026 14:00:01
Eccentricity: 0.0001885
inclination: 97.2845°
perigee height: 417 km
apogee height: 419 km
right ascension of ascending node: 160.3001°
argument of perigee: 113.1922°
revolutions per day: 15.49625664
mean anomaly at epoch: 160.4059°

The dashed part of the orbit path shows where the satellite is in the earth's shadow,  

DLR